EZY98KH LJLJ-EGKK

Flight info

Callsign EZY98KH
Flight time N/A
Altitude 36000
Route GIMIX1Z GIMIX DCT NANIT DCT ERKIR DCT KPT L856 RAVED Y112 HOC DCT LUL DCT RLP DCT ROTSI DCT KOTUN DCT NINAL DCT KESAX DCT KUNAV
Aircraft A320/M-SDE2E3FGHIJ1RWXYZ/LB1

Departure

Time 2026-04-28 11:04
Airport Ljubljana Jože Pučnik Airport (LJLJ)

Arrival

Time N/A
Airport London Gatwick Airport (EGKK)
Time Latitude Longitude Altitude Speed Heading
2026-04-28 10:42 46.23001 14.45465 1264 ft 0 kts 36°
2026-04-28 10:55 46.22984 14.45445 1268 ft 4 kts 44°
2026-04-28 10:55 46.22967 14.45416 1267 ft 4 kts 69°
2026-04-28 10:55 46.22965 14.45386 1258 ft 1 kts 125°
2026-04-28 10:56 46.22966 14.45385 1258 ft 0 kts 125°
2026-04-28 10:58 46.22965 14.45385 1258 ft 0 kts 125°
2026-04-28 10:58 46.22962 14.45392 1258 ft 1 kts 127°
2026-04-28 10:59 46.22929 14.45402 1258 ft 11 kts 194°
2026-04-28 10:59 46.22865 14.45338 1259 ft 10 kts 214°
2026-04-28 10:59 46.22810 14.45357 1259 ft 11 kts 121°
2026-04-28 10:59 46.22753 14.45472 1268 ft 16 kts 126°
2026-04-28 11:00 46.22680 14.45619 1258 ft 20 kts 124°
2026-04-28 11:00 46.22591 14.45791 1254 ft 23 kts 126°
2026-04-28 11:00 46.22492 14.45983 1245 ft 24 kts 126°
2026-04-28 11:00 46.22388 14.46185 1236 ft 26 kts 127°
2026-04-28 11:01 46.22279 14.46399 1230 ft 28 kts 125°
2026-04-28 11:01 46.22176 14.46597 1223 ft 25 kts 126°
2026-04-28 11:01 46.22067 14.46810 1217 ft 27 kts 127°
2026-04-28 11:01 46.21963 14.47013 1214 ft 25 kts 126°
2026-04-28 11:02 46.21869 14.47199 1212 ft 20 kts 126°
2026-04-28 11:02 46.21790 14.47357 1208 ft 17 kts 125°
2026-04-28 11:02 46.21718 14.47498 1204 ft 20 kts 126°
2026-04-28 11:02 46.21632 14.47599 1197 ft 17 kts 184°
2026-04-28 11:03 46.21538 14.47508 1197 ft 15 kts 223°
2026-04-28 11:03 46.21534 14.47391 1200 ft 10 kts 302°
2026-04-28 11:03 46.21598 14.47268 1205 ft 38 kts 306°
2026-04-28 11:03 46.21909 14.46661 1225 ft 109 kts 307°
2026-04-28 11:04 46.22477 14.45550 1254 ft 164 kts 306°
2026-04-28 11:04 46.23198 14.44163 1679 ft 179 kts 308°
2026-04-28 11:04 46.23875 14.42635 2416 ft 183 kts 293°
2026-04-28 11:04 46.24204 14.40817 2867 ft 196 kts 276°
2026-04-28 11:05 46.24355 14.38812 3313 ft 205 kts 274°
2026-04-28 11:05 46.24472 14.36684 3661 ft 224 kts 273°
2026-04-28 11:05 46.24569 14.34367 4279 ft 235 kts 272°
2026-04-28 11:05 46.24659 14.32036 5190 ft 231 kts 272°
2026-04-28 11:06 46.24737 14.29739 6070 ft 226 kts 272°
2026-04-28 11:06 46.24818 14.27507 6892 ft 225 kts 272°
2026-04-28 11:06 46.24922 14.25254 7644 ft 226 kts 274°
2026-04-28 11:06 46.25047 14.22981 8392 ft 228 kts 275°
2026-04-28 11:07 46.25185 14.20688 9149 ft 230 kts 275°
2026-04-28 11:07 46.25329 14.18376 9897 ft 233 kts 275°
2026-04-28 11:07 46.25477 14.16033 10773 ft 235 kts 275°
2026-04-28 11:07 46.25629 14.13664 11546 ft 238 kts 275°
2026-04-28 11:08 46.25792 14.11268 12167 ft 243 kts 279°
2026-04-28 11:08 46.26467 14.08982 12449 ft 265 kts 309°
2026-04-28 11:08 46.27815 14.06999 12645 ft 289 kts 315°
2026-04-28 11:08 46.29312 14.04893 12881 ft 313 kts 314°
2026-04-28 11:09 46.30922 14.02615 13134 ft 333 kts 315°
2026-04-28 11:09 46.32432 14.00461 13697 ft 340 kts 314°
2026-04-28 11:09 46.34117 13.98031 14320 ft 343 kts 314°
2026-04-28 11:09 46.35810 13.95574 14932 ft 346 kts 314°
2026-04-28 11:10 46.37513 13.93097 15552 ft 349 kts 314°
2026-04-28 11:10 46.39205 13.90628 16169 ft 351 kts 314°
2026-04-28 11:10 46.40934 13.88101 16761 ft 354 kts 314°
2026-04-28 11:10 46.42673 13.85557 17381 ft 357 kts 314°
2026-04-28 11:11 46.44428 13.82988 17979 ft 360 kts 314°
2026-04-28 11:11 46.46192 13.80399 18564 ft 362 kts 314°
2026-04-28 11:11 46.47965 13.77791 19096 ft 365 kts 314°
2026-04-28 11:11 46.49751 13.75161 19620 ft 366 kts 314°
2026-04-28 11:12 46.51384 13.72320 20127 ft 368 kts 304°
2026-04-28 11:12 46.52617 13.69054 20630 ft 371 kts 294°
2026-04-28 11:12 46.53415 13.65472 21119 ft 375 kts 286°
2026-04-28 11:12 46.54082 13.61802 21613 ft 377 kts 286°
2026-04-28 11:13 46.54748 13.58158 22094 ft 379 kts 287°
2026-04-28 11:13 46.55431 13.54444 22584 ft 381 kts 287°
2026-04-28 11:13 46.56118 13.50711 23051 ft 384 kts 287°
2026-04-28 11:13 46.56809 13.46949 23482 ft 386 kts 287°
2026-04-28 11:14 46.57503 13.43169 23901 ft 389 kts 287°
2026-04-28 11:14 46.58200 13.39359 24294 ft 391 kts 286°
2026-04-28 11:14 46.58894 13.35535 24674 ft 392 kts 286°
2026-04-28 11:14 46.59581 13.31743 25046 ft 394 kts 286°
2026-04-28 11:15 46.60281 13.27881 25425 ft 396 kts 286°
2026-04-28 11:15 46.60983 13.23999 25801 ft 398 kts 286°
2026-04-28 11:15 46.61688 13.20099 26166 ft 399 kts 286°
2026-04-28 11:15 46.62394 13.16182 26531 ft 401 kts 286°
2026-04-28 11:16 46.63102 13.12253 26892 ft 403 kts 286°
2026-04-28 11:16 46.63813 13.08301 27249 ft 405 kts 286°
2026-04-28 11:16 46.64525 13.04330 27603 ft 406 kts 286°
2026-04-28 11:16 46.65227 13.00390 27941 ft 408 kts 286°
2026-04-28 11:17 46.65936 12.96384 28284 ft 410 kts 286°
2026-04-28 11:17 46.66648 12.92361 28619 ft 411 kts 285°
2026-04-28 11:17 46.67363 12.88324 28965 ft 413 kts 285°
2026-04-28 11:17 46.68084 12.84263 29289 ft 415 kts 286°
2026-04-28 11:18 46.68806 12.80191 29599 ft 416 kts 285°
2026-04-28 11:18 46.69529 12.76095 29899 ft 418 kts 285°
2026-04-28 11:18 46.70253 12.71983 30204 ft 419 kts 285°
2026-04-28 11:18 46.70975 12.67863 30476 ft 420 kts 285°
2026-04-28 11:19 46.71688 12.63787 30717 ft 422 kts 285°
2026-04-28 11:19 46.72413 12.59638 31005 ft 422 kts 285°
2026-04-28 11:19 46.73134 12.55498 31369 ft 420 kts 285°
2026-04-28 11:19 46.73851 12.51379 31735 ft 419 kts 285°
2026-04-28 11:20 46.74564 12.47266 32099 ft 418 kts 285°
2026-04-28 11:20 46.75274 12.43168 32462 ft 416 kts 285°
2026-04-28 11:20 46.75978 12.39083 32819 ft 415 kts 285°
2026-04-28 11:20 46.76679 12.35004 33138 ft 414 kts 285°
2026-04-28 11:21 46.77375 12.30939 33473 ft 413 kts 285°
2026-04-28 11:21 46.78068 12.26884 33831 ft 411 kts 285°
2026-04-28 11:21 46.78758 12.22841 34117 ft 411 kts 285°
2026-04-28 11:22 46.80149 12.14716 34165 ft 421 kts 285°
2026-04-28 11:22 46.81565 12.06371 34151 ft 425 kts 284°
2026-04-28 11:23 46.82972 11.97997 34140 ft 425 kts 284°
2026-04-28 11:23 46.84376 11.89613 34121 ft 425 kts 284°
2026-04-28 11:24 46.85774 11.81292 34109 ft 424 kts 284°
2026-04-28 11:24 46.87168 11.72912 34097 ft 424 kts 284°
2026-04-28 11:25 46.88533 11.64616 34091 ft 424 kts 284°
2026-04-28 11:25 46.89911 11.56227 34094 ft 424 kts 284°
2026-04-28 11:26 46.91278 11.47888 34092 ft 424 kts 284°
2026-04-28 11:26 46.92646 11.39498 34101 ft 424 kts 284°
2026-04-28 11:27 46.94009 11.31105 34104 ft 424 kts 284°
2026-04-28 11:27 46.95371 11.22706 34111 ft 424 kts 284°
2026-04-28 11:28 46.96727 11.14309 34115 ft 424 kts 284°
2026-04-28 11:28 46.98056 11.05968 34112 ft 423 kts 283°
2026-04-28 11:29 46.99388 10.97554 34110 ft 424 kts 283°
2026-04-28 11:29 47.00718 10.89154 34110 ft 423 kts 283°
2026-04-28 11:30 47.02039 10.80752 34100 ft 423 kts 283°
2026-04-28 11:30 47.04004 10.68202 34104 ft 423 kts 283°
2026-04-28 11:31 47.05309 10.59796 34096 ft 423 kts 283°
2026-04-28 11:31 47.06608 10.51388 34102 ft 423 kts 283°
2026-04-28 11:32 47.07681 10.44392 34101 ft 423 kts 283°
2026-04-28 11:32 47.09174 10.34614 34102 ft 422 kts 283°
2026-04-28 11:33 47.10243 10.27562 34101 ft 422 kts 282°
2026-04-28 11:33 47.11508 10.19210 34098 ft 422 kts 282°
2026-04-28 11:34 47.12778 10.10788 34095 ft 422 kts 282°
2026-04-28 11:34 47.14248 10.01004 34090 ft 423 kts 282°
2026-04-28 11:35 47.15303 9.93986 34089 ft 422 kts 282°
2026-04-28 11:35 47.16539 9.85624 34081 ft 421 kts 282°
2026-04-28 11:36 47.17776 9.77219 34077 ft 422 kts 282°
2026-04-28 11:36 47.19213 9.67424 34075 ft 421 kts 282°
2026-04-28 11:37 47.20183 9.60762 34072 ft 422 kts 282°
2026-04-28 11:37 47.21394 9.52397 34072 ft 421 kts 281°
2026-04-28 11:38 47.22588 9.44109 34073 ft 421 kts 282°
2026-04-28 11:38 47.23798 9.35689 34070 ft 421 kts 281°
2026-04-28 11:39 47.24963 9.27525 34074 ft 421 kts 281°
2026-04-28 11:39 47.26148 9.19156 34072 ft 420 kts 281°
2026-04-28 11:40 47.27336 9.10761 34074 ft 420 kts 281°
2026-04-28 11:40 47.28459 9.02783 34078 ft 420 kts 281°
2026-04-28 11:41 47.29464 8.95515 34080 ft 420 kts 281°
2026-04-28 11:41 47.30628 8.87144 34083 ft 419 kts 281°
2026-04-28 11:42 47.31773 8.78861 34089 ft 419 kts 281°
2026-04-28 11:42 47.32934 8.70456 34094 ft 419 kts 281°
2026-04-28 11:43 47.34086 8.62039 34095 ft 418 kts 280°
2026-04-28 11:43 47.35220 8.53722 34094 ft 418 kts 280°
2026-04-28 11:44 47.36336 8.45388 34097 ft 417 kts 280°
2026-04-28 11:44 47.37464 8.36983 34095 ft 417 kts 280°
2026-04-28 11:45 47.38551 8.28844 34085 ft 410 kts 279°
2026-04-28 11:45 47.39635 8.20674 34069 ft 404 kts 279°
2026-04-28 11:46 47.40701 8.12578 34065 ft 404 kts 279°
2026-04-28 11:46 47.41763 8.04532 34064 ft 405 kts 279°
2026-04-28 11:47 47.42822 7.96416 34054 ft 405 kts 279°
2026-04-28 11:47 47.43876 7.88246 34061 ft 405 kts 278°
2026-04-28 11:48 47.44920 7.80123 34055 ft 405 kts 278°
2026-04-28 11:48 47.45968 7.71945 34061 ft 405 kts 278°
2026-04-28 11:49 47.47031 7.63778 34064 ft 405 kts 280°
2026-04-28 11:49 47.48366 7.55689 34058 ft 405 kts 282°
2026-04-28 11:50 47.49796 7.47684 34069 ft 405 kts 282°
2026-04-28 11:50 47.51182 7.39634 34072 ft 404 kts 281°
2026-04-28 11:51 47.52508 7.31560 34068 ft 403 kts 281°
2026-04-28 11:51 47.53820 7.23492 34071 ft 403 kts 281°
2026-04-28 11:52 47.55134 7.15433 34061 ft 403 kts 281°
2026-04-28 11:52 47.56441 7.07424 34059 ft 403 kts 281°
2026-04-28 11:53 47.57753 6.99366 34055 ft 403 kts 281°
2026-04-28 11:53 47.59062 6.91302 34057 ft 402 kts 281°
2026-04-28 11:54 47.60355 6.83240 34054 ft 402 kts 280°
2026-04-28 11:54 47.61633 6.75224 34054 ft 402 kts 280°
2026-04-28 11:55 47.62920 6.67151 34055 ft 402 kts 280°
2026-04-28 11:55 47.64202 6.59075 34055 ft 403 kts 280°
2026-04-28 11:56 47.65477 6.50987 34033 ft 403 kts 280°
2026-04-28 11:56 47.66751 6.42901 34031 ft 403 kts 280°
2026-04-28 11:57 47.68012 6.34852 34029 ft 403 kts 279°
2026-04-28 11:57 47.69321 6.26762 34029 ft 404 kts 282°
2026-04-28 11:58 47.70987 6.18776 34033 ft 406 kts 284°
2026-04-28 11:58 47.72781 6.10841 34040 ft 406 kts 284°
2026-04-28 11:59 47.74529 6.02860 34045 ft 405 kts 283°
2026-04-28 11:59 47.76194 5.94925 34052 ft 405 kts 283°
2026-04-28 12:00 47.77847 5.86917 34061 ft 405 kts 283°
2026-04-28 12:00 47.79507 5.78935 34065 ft 405 kts 283°
2026-04-28 12:01 47.81176 5.70926 34068 ft 404 kts 283°
2026-04-28 12:01 47.82838 5.62933 34070 ft 404 kts 283°
2026-04-28 12:02 47.84481 5.54998 34063 ft 404 kts 283°
2026-04-28 12:02 47.86131 5.47016 34066 ft 404 kts 282°
2026-04-28 12:03 47.87769 5.39014 34071 ft 403 kts 282°
2026-04-28 12:03 47.89379 5.31074 34058 ft 403 kts 282°
2026-04-28 12:04 47.91698 5.23399 34051 ft 416 kts 299°
2026-04-28 12:04 47.95543 5.16821 34044 ft 422 kts 305°
2026-04-28 12:05 47.99492 5.10321 34041 ft 423 kts 305°
2026-04-28 12:05 48.03425 5.03841 34038 ft 424 kts 305°
2026-04-28 12:06 48.07381 4.97289 34032 ft 425 kts 304°
2026-04-28 12:06 48.11338 4.90711 34026 ft 426 kts 305°
2026-04-28 12:07 48.15311 4.84099 34029 ft 428 kts 305°
2026-04-28 12:07 48.19260 4.77528 34027 ft 428 kts 305°
2026-04-28 12:08 48.23278 4.70813 34027 ft 430 kts 305°
2026-04-28 12:08 48.27235 4.64159 34033 ft 431 kts 305°
2026-04-28 12:09 48.31235 4.57427 34032 ft 432 kts 305°
2026-04-28 12:09 48.35243 4.50676 34038 ft 434 kts 305°
2026-04-28 12:10 48.39242 4.43928 34038 ft 436 kts 306°
2026-04-28 12:10 48.43274 4.37097 34038 ft 437 kts 306°
2026-04-28 12:11 48.47309 4.30219 34036 ft 439 kts 306°
2026-04-28 12:11 48.51363 4.23299 34038 ft 441 kts 306°
2026-04-28 12:12 48.55410 4.16401 34037 ft 443 kts 306°
2026-04-28 12:12 48.59496 4.09421 34040 ft 444 kts 306°
2026-04-28 12:13 48.63579 4.02406 34041 ft 446 kts 306°
2026-04-28 12:13 48.67684 3.95339 34042 ft 447 kts 306°
2026-04-28 12:14 48.71782 3.88262 34046 ft 448 kts 306°
2026-04-28 12:14 48.76049 3.81400 34050 ft 452 kts 310°
2026-04-28 12:15 48.80606 3.74802 34052 ft 454 kts 311°
2026-04-28 12:15 48.85183 3.68188 34058 ft 454 kts 311°
2026-04-28 12:16 48.89705 3.61469 34061 ft 455 kts 310°
2026-04-28 12:16 48.94157 3.54749 34064 ft 456 kts 310°
2026-04-28 12:17 48.98673 3.47921 34066 ft 457 kts 310°
2026-04-28 12:17 49.03202 3.41106 34072 ft 458 kts 310°
2026-04-28 12:18 49.07704 3.34309 34068 ft 459 kts 310°
2026-04-28 12:18 49.12242 3.27426 34077 ft 461 kts 311°
2026-04-28 12:19 49.16790 3.20513 34082 ft 462 kts 311°
2026-04-28 12:19 49.21345 3.13579 34074 ft 463 kts 311°
2026-04-28 12:20 49.25891 3.06640 34104 ft 461 kts 311°
2026-04-28 12:20 49.30399 2.99737 34104 ft 462 kts 311°
2026-04-28 12:21 49.34933 2.92755 34113 ft 463 kts 311°
2026-04-28 12:21 49.39480 2.85748 34105 ft 464 kts 311°
2026-04-28 12:22 49.44002 2.78770 34114 ft 464 kts 311°
2026-04-28 12:22 49.48537 2.71750 34114 ft 465 kts 311°
2026-04-28 12:23 49.53105 2.64656 34119 ft 465 kts 312°
2026-04-28 12:23 49.57655 2.57568 34119 ft 466 kts 312°
2026-04-28 12:24 49.62125 2.50432 34118 ft 466 kts 309°
2026-04-28 12:24 49.66352 2.42871 34117 ft 465 kts 307°
2026-04-28 12:25 49.70456 2.35141 34121 ft 466 kts 307°
2026-04-28 12:25 49.74601 2.27425 34120 ft 467 kts 308°
2026-04-28 12:26 49.78802 2.19740 34124 ft 468 kts 308°
2026-04-28 12:26 49.80883 2.15944 34141 ft 457 kts 308°
2026-04-28 12:26 49.82899 2.12267 34144 ft 451 kts 308°
2026-04-28 12:27 49.86924 2.04871 34151 ft 448 kts 308°
2026-04-28 12:27 49.90935 1.97460 34157 ft 449 kts 308°
2026-04-28 12:28 49.94948 1.90036 34160 ft 449 kts 308°
2026-04-28 12:28 49.96961 1.86300 34052 ft 455 kts 308°
2026-04-28 12:28 49.98998 1.82513 33775 ft 459 kts 308°
2026-04-28 12:29 50.03109 1.74842 31830 ft 471 kts 307°
2026-04-28 12:29 50.05192 1.70946 31283 ft 466 kts 307°
2026-04-28 12:29 50.07325 1.67170 30666 ft 464 kts 313°
2026-04-28 12:30 50.09721 1.63823 30038 ft 462 kts 316°
2026-04-28 12:30 50.12136 1.60567 29420 ft 456 kts 316°
2026-04-28 12:30 50.14520 1.57353 28842 ft 450 kts 316°
2026-04-28 12:30 50.16873 1.54169 28280 ft 445 kts 316°
2026-04-28 12:31 50.19191 1.51010 27717 ft 441 kts 316°
2026-04-28 12:31 50.21490 1.47865 27158 ft 437 kts 317°
2026-04-28 12:31 50.23766 1.44750 26606 ft 433 kts 317°
2026-04-28 12:31 50.26020 1.41662 26061 ft 429 kts 317°
2026-04-28 12:32 50.28257 1.38597 25546 ft 426 kts 317°
2026-04-28 12:32 50.30448 1.35601 25034 ft 422 kts 317°
2026-04-28 12:32 50.32646 1.32589 24539 ft 418 kts 317°
2026-04-28 12:32 50.34824 1.29596 24046 ft 415 kts 317°
2026-04-28 12:33 50.36982 1.26626 23550 ft 412 kts 318°
2026-04-28 12:33 50.39123 1.23682 23073 ft 406 kts 318°
2026-04-28 12:33 50.41235 1.20781 22629 ft 401 kts 318°
2026-04-28 12:33 50.43317 1.17904 22184 ft 397 kts 318°
2026-04-28 12:34 50.45374 1.15051 21728 ft 393 kts 319°
2026-04-28 12:34 50.47411 1.12221 21300 ft 390 kts 319°
2026-04-28 12:34 50.49435 1.09418 20850 ft 387 kts 319°
2026-04-28 12:34 50.51439 1.06615 20400 ft 385 kts 317°
2026-04-28 12:35 50.53280 1.03578 19944 ft 383 kts 314°
2026-04-28 12:35 50.55073 1.00561 19474 ft 382 kts 314°
2026-04-28 12:35 50.56881 0.97517 19016 ft 381 kts 315°
2026-04-28 12:35 50.58687 0.94476 18542 ft 380 kts 315°
2026-04-28 12:36 50.60489 0.91436 18036 ft 379 kts 315°
2026-04-28 12:36 50.62279 0.88406 17564 ft 376 kts 315°
2026-04-28 12:36 50.64049 0.85403 17101 ft 374 kts 315°
2026-04-28 12:36 50.65820 0.82399 16641 ft 372 kts 315°
2026-04-28 12:37 50.67573 0.79409 16188 ft 371 kts 314°
2026-04-28 12:37 50.69276 0.76320 15421 ft 378 kts 312°
2026-04-28 12:37 50.70934 0.73122 14680 ft 385 kts 310°
2026-04-28 12:37 50.72594 0.69808 14240 ft 382 kts 310°
2026-04-28 12:38 50.74215 0.66525 13615 ft 376 kts 310°
2026-04-28 12:38 50.75814 0.63297 12652 ft 372 kts 310°
2026-04-28 12:38 50.77407 0.60113 11749 ft 366 kts 310°
2026-04-28 12:38 50.78950 0.57050 11487 ft 343 kts 310°
2026-04-28 12:39 50.80384 0.54211 11312 ft 321 kts 311°
2026-04-28 12:39 50.81757 0.51500 11024 ft 311 kts 311°
2026-04-28 12:39 50.83108 0.48845 10783 ft 309 kts 312°
2026-04-28 12:39 50.84456 0.46200 10375 ft 311 kts 312°
2026-04-28 12:40 50.85790 0.43579 10095 ft 308 kts 312°
2026-04-28 12:40 50.87127 0.40945 9715 ft 307 kts 312°
2026-04-28 12:40 50.88451 0.38315 9382 ft 301 kts 311°
2026-04-28 12:40 50.89738 0.35731 8785 ft 298 kts 311°
2026-04-28 12:41 50.91023 0.33146 8397 ft 297 kts 311°
2026-04-28 12:41 50.92297 0.30577 8031 ft 296 kts 311°
2026-04-28 12:41 50.93327 0.27768 7673 ft 297 kts 291°
2026-04-28 12:41 50.93928 0.24652 7298 ft 297 kts 287°
2026-04-28 12:42 50.94106 0.23628 7177 ft 296 kts 286°